Weather History for Alexandria, LA

Change the Weather History Date:

Friday, August 9, 2013

  Actual Average Record
Temperature  
Mean Temperature 86 °F 83 °F  
Max Temperature 98 °F 93 °F 107 °F (1947)
Min Temperature 74 °F 72 °F 60 °F (1989)
Cooling Degree Days 21 18  
Month to date cooling degree days 195 162  
Year to date cooling degree days 1596 1608  
Since 1 June cooling degree days 1203 1154  
Growing Degree Days 36 (Base 50)    
Moisture  
Dew Point 73 °F    
Average Humidity 70    
Maximum Humidity 94    
Minimum Humidity 45    
Precipitation  
Precipitation T in 0.08 in 2.90 in (1998)
Month to date precipitation T 0.99  
Year to date precipitation 32.91 33.72  
Sea Level Pressure  
Sea Level Pressure 29.94 in    
Wind  
Wind Speed 4 mph (SE)    
Max Wind Speed 18 mph    
Max Gust Speed 25 mph    
Visibility 9 miles    
Events      
T = Trace of Precipitation, MM = Missing Value Source: NWS Daily Summary

Daily Weather History Graph

Daily Weather History Graph

Search for Another Location

Airport:

Trip Planner

Search our weather history database for the weather conditions in past years. The results will help you decide how hot, cold, wet, or windy it might be!

Date:

Astronomy

Aug. 09, 2013 Rise Set
Actual Time 6:32 AM CDT 7:58 PM CDT
Civil Twilight 6:06 AM CDT 8:24 PM CDT
Nautical Twilight 5:35 AM CDT 8:55 PM CDT
Astronomical Twilight 5:02 AM CDT 9:27 PM CDT
Moon 9:03 AM CDT (8/9) 9:25 PM CDT (8/9)
Length of Visible Light 14h 18m
Length of Day
13h 26m
Waxing Crescent, 8% of the Moon is Illuminated
Aug 9
Waxing Crescent
Aug 14
First Quarter
Aug 20
Full
Aug 28
Last Quarter
Sep 5
New

Hourly Weather History & Observations

Time (CDT) Temp. Heat Index Dew Point Humidity Pressure Visibility Wind Dir Wind Speed Gust Speed Precip Events Conditions
12:53 AM 78.1 °F - 73.0 °F 84% 29.93 in 10.0 mi Calm Calm - N/A   Clear
1:53 AM 77.0 °F - 73.0 °F 88% 29.93 in 9.0 mi Calm Calm - N/A   Clear
2:53 AM 75.9 °F - 73.0 °F 91% 29.92 in 9.0 mi Calm Calm - N/A   Clear
3:53 AM 77.0 °F - 73.0 °F 88% 29.92 in 9.0 mi Calm Calm - N/A   Clear
4:53 AM 75.0 °F - 73.0 °F 94% 29.93 in 9.0 mi Calm Calm - N/A   Clear
5:53 AM 75.9 °F - 73.0 °F 91% 29.93 in 9.0 mi Calm Calm - N/A   Clear
6:53 AM 75.0 °F - 73.0 °F 94% 29.94 in 7.0 mi Calm Calm - N/A   Clear
7:18 AM 75.2 °F - 73.4 °F 94% 29.94 in 6.0 mi Calm Calm - N/A   Partly Cloudy
7:53 AM 78.1 °F - 73.9 °F 87% 29.95 in 8.0 mi Calm Calm - N/A   Clear
8:53 AM 82.0 °F 88.6 °F 75.0 °F 79% 29.96 in 8.0 mi SW 3.5 mph - N/A   Clear
9:53 AM 87.1 °F 96.3 °F 75.0 °F 67% 29.97 in 10.0 mi Calm Calm - N/A   Clear
10:53 AM 91.0 °F 100.4 °F 73.9 °F 57% 29.97 in 10.0 mi Calm Calm - N/A   Clear
11:53 AM 93.0 °F 103.2 °F 73.9 °F 54% 29.96 in 10.0 mi ESE 5.8 mph - N/A   Clear
12:53 PM 95.0 °F 103.2 °F 72.0 °F 47% 29.95 in 10.0 mi SSE 6.9 mph - N/A   Clear
1:53 PM 96.1 °F 104.9 °F 72.0 °F 46% 29.93 in 10.0 mi SSE 6.9 mph - N/A   Partly Cloudy
2:53 PM 97.0 °F 105.5 °F 72.0 °F 44% 29.91 in 10.0 mi Calm Calm - N/A   Scattered Clouds
3:53 PM 96.1 °F 105.6 °F 73.0 °F 47% 29.89 in 10.0 mi Variable 3.5 mph - N/A   Mostly Cloudy
4:53 PM 97.0 °F 109.3 °F 75.0 °F 49% 29.90 in 10.0 mi Variable 4.6 mph - 0.00 in   Partly Cloudy
5:53 PM 96.1 °F 104.9 °F 72.0 °F 46% 29.89 in 10.0 mi ESE 11.5 mph 16.1 mph N/A   Clear
6:53 PM 93.9 °F 102.1 °F 72.0 °F 49% 29.89 in 10.0 mi SE 6.9 mph - N/A   Clear
7:53 PM 89.1 °F 97.0 °F 73.0 °F 59% 29.93 in 10.0 mi SE 12.7 mph - N/A   Scattered Clouds
8:53 PM 86.0 °F 93.0 °F 73.0 °F 65% 29.96 in 10.0 mi SE 10.4 mph - N/A   Clear
9:53 PM 82.0 °F 87.4 °F 73.0 °F 74% 29.99 in 10.0 mi SSE 6.9 mph - N/A   Clear
10:53 PM 81.0 °F 86.2 °F 73.9 °F 79% 30.00 in 10.0 mi SSE 5.8 mph - N/A   Clear
11:53 PM 80.1 °F 84.5 °F 73.9 °F 81% 30.00 in 10.0 mi SSE 4.6 mph - N/A   Clear